Regional Weather Roundup
Issued by NWS

Home | Current Version | Previous Version | Graphics & Text | Print | Product List | Glossary On
Versions: 1 2 3 4 5 6 7 8 9 10 11 12 13 14 15 16 17 18 19 20 21 22 23 24 25 26 27 28 29 30 31 32 33 34 35 36 37 38 39 40 41 42 43 44 45 46 47 48 49 50
000
ASUS45 KBOI 221510
RWRID

IDAHO REGIONAL WEATHER ROUNDUP
NATIONAL WEATHER SERVICE BOISE ID
900 AM MDT FRI MAY 22 2015

NOTE: "FAIR" INDICATES FEW OR NO CLOUDS BELOW 12000 FEET
WITH NO SIGNIFICANT WEATHER AND/OR OBSTRUCTIONS TO VISIBILITY

IDZ012-014-221600-
SOUTHWEST IDAHO


CITY           SKY/WX    TMP DP  RH WIND       PRES   REMARKS
BOISE          CLOUDY    59  48  67 S5        29.89S
CALDWELL       CLOUDY    57  45  62 NW6       29.90S
MOUNTAIN HOME  CLOUDY    56  46  67 E2        29.90R
$$

IDZ016-017-221600-
SOUTHCENTRAL IDAHO


CITY           SKY/WX    TMP DP  RH WIND       PRES   REMARKS
BURLEY         CLOUDY    54  47  77 S3        29.91S
JEROME         LGT RAIN  51  47  86 E7        29.94R FOG
TWIN FALLS     LGT RAIN  53  47  79 E5        29.91R
$$

IDZ019>023-221600-
SOUTHEAST IDAHO


CITY           SKY/WX    TMP DP  RH WIND       PRES   REMARKS
IDAHO FALLS    CLOUDY    53  47  79 N5        29.94S
POCATELLO      PTSUNNY   52  48  86 CALM      29.93S
REXBURG        PTSUNNY   53  44  71 NE3       29.95S
$$

IDZ006-010-011-018-031-032-221600-
CENTRAL IDAHO MOUNTAINS


CITY           SKY/WX    TMP DP  RH WIND       PRES   REMARKS
MCCALL         CLOUDY    43  42  97 S3        29.94S
HAILEY         LGT RAIN  46  43  87 NW9       29.97F
STANLEY          N/A     43  39  86 CALM      30.02S
SALMON         PTSUNNY   52  45  76 CALM      29.95S
CHALLIS        CLOUDY    49  41  74 CALM      29.97F
$$

IDZ002-004-006-007-026-221600-
NORTHERN IDAHO


CITY           SKY/WX    TMP DP  RH WIND       PRES   REMARKS
LEWISTON       SUNNY     64  54  69 NE6       29.86S
LOWELL           N/A     53  49  86 CALM      29.91F
COEUR D`ALENE  MOSUNNY   63  48  59 E6        29.87F
MULLAN PASS    SUNNY     54  40  59 CALM      29.99S
$$



USA.gov is the U.S. government's official web portal to all federal, state and local government web resources and services.